Regional Weather Roundup
Issued by NWS

Home | Current Version | Previous Version | Text Only | Print | Product List | Glossary On
Versions: 1 2 3 4 5 6 7 8 9 10 11 12 13 14 15 16 17 18 19 20 21 22 23 24 25 26 27 28 29 30 31 32 33 34 35 36 37 38 39 40 41 42 43 44 45 46 47 48 49 50
000
ASUS43 KTOP 271508
RWRKS

WEATHER ROUNDUP FOR KANSAS
NATIONAL WEATHER SERVICE GOODLAND KS
1000 AM CDT THU JUL 27 2017

NOTE:  "FAIR" INDICATES FEW OR NO CLOUDS BELOW 12,000 FEET WITH NO
SIGNIFICANT WEATHER AND/OR OBSTRUCTIONS TO VISIBILITY.

KSZ001>006-013>018-027>032-041>047-271600-
NORTHWEST KANSAS

CITY           SKY/WX    TMP DP  RH WIND       PRES   REMARKS
GOODLAND       CLOUDY    70  66  87 E9        30.21R
HAYS           CLOUDY    75  68  78 NE14      30.10R
HILL CITY      CLOUDY    76  69  79 NE12      30.14R
RUSSELL        CLOUDY    73  70  90 NE10      30.08R
$$

KSZ061>065-074>080-084>089-271600-
SOUTHWEST KANSAS

CITY           SKY/WX    TMP DP  RH WIND       PRES   REMARKS
DODGE CITY     CLOUDY    71  70  96 N9        30.10R FOG
ELKHART          N/A     71  57  61 NW6         N/A
GARDEN CITY    RAIN      70  68  93 NE13      30.12S FOG
GREAT BEND     CLOUDY    77  71  82 N13       30.08R
LIBERAL        CLOUDY    73  70  90 N13       30.13S
PRATT          CLOUDY    72  70  95 N12       30.05R
$$

KSZ066>073-081>083-090>101-271600-
SOUTHEAST KANSAS

CITY           SKY/WX    TMP DP  RH WIND       PRES   REMARKS
CHANUTE        CLOUDY    78  74  87 E7        30.01R
COFFEYVILLE    LGT RAIN  77  75  93 SW5       29.99R
HUTCHINSON     CLOUDY    77  72  84 NE9       30.01R
MEDICINE LODGE   N/A     79  71  76 N15G24    29.99R
NEWTON         CLOUDY    76  73  91 NE12G17   30.01R
PARSONS        CLOUDY    80  74  81 CALM      30.01R
WICHITA INTL   PTSUNNY   81  75  82 NW5       29.98R
WICHITA JABRA  PTSUNNY   78  74  87 NE9       29.99R
WICHITA MCCONL MOSUNNY   82  72  70 NE5       29.98R
WINFIELD       MOSUNNY   86  68  54 SW12      29.99R
$$

KSZ007>012-019>026-033>040-048>060-102>105-271600-
NORTHEAST KANSAS

CITY           SKY/WX    TMP DP  RH WIND       PRES   REMARKS
CONCORDIA      CLOUDY    76  70  82 NE15      30.06S
EMPORIA        CLOUDY    75  73  93 NE10      30.00S
LAWRENCE       CLOUDY    76  76 100 CALM      29.99F
MANHATTAN      CLOUDY    78  71  79 NE14      30.01S
MARYSVILLE     CLOUDY    77  70  78 NE8       30.05F
OLATHE IND     CLOUDY    77  74  90 N3        30.00S
OLATHE EXE     CLOUDY    77  75  93 NW5       29.99S
SALINA         CLOUDY    79  71  76 NE13      30.03R
TOPEKA BILLARD CLOUDY    77  76  96 N7        29.99F
TOPEKA FORBES  CLOUDY    78  76  93 N8        30.00S
$$



USA.gov is the U.S. government's official web portal to all federal, state and local government web resources and services.